TimeCST,TemperatureF,Dew PointF,Humidity,Sea Level PressureIn,VisibilityMPH,Wind Direction,Wind SpeedMPH,Gust SpeedMPH,PrecipitationIn,Events,Conditions,WindDirDegrees,DateUTC
12:15 AM,-10.7,-15.0,81,30.20,10.0,WNW,10.4,-,N/A,,Clear,290,2013-01-20 06:15:00
12:35 AM,-11.2,-15.7,80,30.21,10.0,West,8.1,-,N/A,,Clear,280,2013-01-20 06:35:00
12:55 AM,-11.6,-16.1,80,30.21,10.0,WNW,8.1,-,N/A,,Clear,300,2013-01-20 06:55:00
1:15 AM,-12.3,-16.8,80,30.20,10.0,WNW,5.8,-,N/A,,Clear,300,2013-01-20 07:15:00
1:35 AM,-12.8,-17.3,80,30.21,10.0,WNW,6.9,-,N/A,,Clear,290,2013-01-20 07:35:00
1:55 AM,-13.0,-17.7,80,30.22,10.0,WNW,8.1,-,N/A,,Clear,290,2013-01-20 07:55:00
2:15 AM,-13.2,-17.7,80,30.23,10.0,West,8.1,-,N/A,,Clear,280,2013-01-20 08:15:00
2:35 AM,-13.0,-17.7,80,30.24,10.0,West,8.1,-,N/A,,Clear,280,2013-01-20 08:35:00
2:55 AM,-13.2,-18.0,79,30.25,10.0,West,9.2,-,N/A,,Clear,270,2013-01-20 08:55:00
3:15 AM,-13.5,-18.4,79,30.25,10.0,West,9.2,-,N/A,,Clear,270,2013-01-20 09:15:00
3:35 AM,-13.9,-18.4,80,30.26,10.0,West,5.8,-,N/A,,Clear,280,2013-01-20 09:35:00
3:55 AM,-14.1,-18.4,81,30.25,10.0,West,6.9,-,N/A,,Clear,270,2013-01-20 09:55:00
4:15 AM,-14.1,-18.6,80,30.25,10.0,West,6.9,-,N/A,,Scattered Clouds,280,2013-01-20 10:15:00
4:35 AM,-14.3,-18.8,80,30.25,10.0,West,5.8,-,N/A,,Scattered Clouds,270,2013-01-20 10:35:00
4:55 AM,-14.1,-18.4,81,30.25,10.0,West,5.8,-,N/A,,Mostly Cloudy,280,2013-01-20 10:55:00
5:15 AM,-14.1,-18.6,80,30.24,10.0,West,4.6,-,N/A,,Scattered Clouds,270,2013-01-20 11:15:00
5:35 AM,-14.6,-19.1,80,30.24,10.0,West,4.6,-,N/A,,Clear,260,2013-01-20 11:35:00
5:55 AM,-14.8,-19.3,80,30.24,10.0,WSW,3.5,-,N/A,,Clear,250,2013-01-20 11:55:00
6:15 AM,-14.8,-19.3,80,30.24,10.0,WSW,3.5,-,N/A,,Clear,250,2013-01-20 12:15:00
6:35 AM,-15.0,-19.5,80,30.24,10.0,WSW,3.5,-,N/A,,Clear,250,2013-01-20 12:35:00
6:55 AM,-15.2,-19.7,80,30.24,10.0,WSW,4.6,-,N/A,,Scattered Clouds,250,2013-01-20 12:55:00
7:15 AM,-15.2,-19.8,79,30.24,10.0,West,5.8,-,N/A,,Scattered Clouds,260,2013-01-20 13:15:00
7:35 AM,-14.6,-19.3,79,30.24,10.0,West,6.9,-,N/A,,Mostly Cloudy,260,2013-01-20 13:35:00
7:55 AM,-13.9,-18.6,80,30.26,10.0,West,9.2,-,N/A,,Overcast,270,2013-01-20 13:55:00
8:15 AM,-13.0,-17.9,79,30.26,10.0,West,6.9,-,N/A,,Overcast,270,2013-01-20 14:15:00
8:35 AM,-12.1,-16.8,80,30.26,2.5,West,8.1,-,N/A,Snow,Light Snow,270,2013-01-20 14:35:00
8:55 AM,-11.4,-16.1,80,30.26,2.5,West,5.8,-,N/A,Snow,Light Snow,260,2013-01-20 14:55:00
9:15 AM,-10.7,-15.7,78,30.26,2.5,WSW,5.8,-,N/A,Snow,Light Snow,250,2013-01-20 15:15:00
9:35 AM,-10.1,-15.2,78,30.26,2.5,WSW,8.1,-,N/A,Snow,Light Snow,240,2013-01-20 15:35:00
9:55 AM,-9.4,-14.6,78,30.26,4.0,WSW,8.1,-,N/A,Snow,Light Snow,240,2013-01-20 15:55:00
10:15 AM,-8.1,-13.5,77,30.26,4.0,WSW,10.4,-,N/A,Snow,Light Snow,250,2013-01-20 16:15:00
10:35 AM,-7.2,-12.8,77,30.26,4.0,West,8.1,-,N/A,Snow,Light Snow,260,2013-01-20 16:35:00
10:55 AM,-6.2,-12.1,75,30.26,4.0,West,9.2,-,N/A,Snow,Light Snow,270,2013-01-20 16:55:00
11:15 AM,-5.6,-11.7,75,30.26,5.0,West,15.0,-,N/A,,Haze,270,2013-01-20 17:15:00
11:35 AM,-4.7,-11.2,74,30.26,10.0,West,13.8,-,N/A,,Mostly Cloudy,280,2013-01-20 17:35:00
11:55 AM,-4.0,-10.7,73,30.25,3.0,WNW,16.1,-,N/A,,Haze,290,2013-01-20 17:55:00
12:15 PM,-4.0,-11.0,72,30.25,4.0,West,17.3,-,N/A,,Haze,280,2013-01-20 18:15:00
12:35 PM,-3.8,-11.4,70,30.24,5.0,West,13.8,-,N/A,,Haze,280,2013-01-20 18:35:00
12:55 PM,-3.5,-11.4,69,30.24,4.0,West,13.8,-,N/A,,Haze,280,2013-01-20 18:55:00
1:15 PM,-2.9,-11.6,67,30.23,7.0,West,15.0,-,N/A,,Overcast,270,2013-01-20 19:15:00
1:35 PM,-2.7,-11.4,67,30.22,5.0,West,15.0,-,N/A,,Haze,270,2013-01-20 19:35:00
1:55 PM,-3.1,-11.2,68,30.22,3.0,WNW,15.0,-,N/A,,Haze,290,2013-01-20 19:55:00
2:15 PM,-3.1,-11.4,68,30.22,5.0,West,18.4,23.0,N/A,,Haze,280,2013-01-20 20:15:00
2:35 PM,-3.5,-12.1,67,30.22,4.0,West,13.8,21.9,N/A,,Haze,280,2013-01-20 20:35:00
2:55 PM,-3.5,-11.9,67,30.22,4.0,West,15.0,-,N/A,,Haze,280,2013-01-20 20:55:00
3:15 PM,-3.8,-13.4,64,30.21,10.0,West,15.0,-,N/A,,Overcast,280,2013-01-20 21:15:00
3:35 PM,-4.2,-13.5,64,30.21,10.0,WNW,18.4,-,N/A,,Mostly Cloudy,300,2013-01-20 21:35:00
3:55 PM,-4.9,-13.9,65,30.21,10.0,WNW,15.0,-,N/A,,Scattered Clouds,290,2013-01-20 21:55:00
4:15 PM,-5.3,-14.3,65,30.22,10.0,West,12.7,-,N/A,,Scattered Clouds,280,2013-01-20 22:15:00
4:35 PM,-6.0,-14.3,67,30.21,10.0,WNW,10.4,-,N/A,,Clear,290,2013-01-20 22:35:00
4:55 PM,-6.5,-14.1,70,30.21,10.0,West,11.5,-,N/A,,Clear,280,2013-01-20 22:55:00
5:15 PM,-6.9,-13.9,72,30.21,7.0,West,15.0,18.4,N/A,,Mostly Cloudy,280,2013-01-20 23:15:00
5:35 PM,-7.4,-13.9,73,30.21,10.0,West,13.8,-,N/A,,Overcast,280,2013-01-20 23:35:00
5:55 PM,-8.1,-14.3,75,30.21,7.0,WNW,20.7,-,N/A,,Mostly Cloudy,290,2013-01-20 23:55:00
6:15 PM,-8.7,-14.8,75,30.21,10.0,WNW,11.5,-,N/A,,Scattered Clouds,290,2013-01-21 00:15:00
6:35 PM,-9.4,-15.3,75,30.20,10.0,WNW,10.4,-,N/A,,Clear,290,2013-01-21 00:35:00
6:55 PM,-9.8,-16.1,74,30.20,10.0,WNW,12.7,-,N/A,,Clear,290,2013-01-21 00:55:00
7:15 PM,-10.3,-16.6,74,30.20,10.0,WNW,13.8,-,N/A,,Clear,290,2013-01-21 01:15:00
7:35 PM,-10.5,-16.6,74,30.20,7.0,WNW,11.5,18.4,N/A,,Mostly Cloudy,290,2013-01-21 01:35:00
7:55 PM,-11.0,-16.8,76,30.20,5.0,WNW,10.4,-,N/A,,Haze,300,2013-01-21 01:55:00
8:15 PM,-11.4,-17.0,76,30.20,5.0,NW,6.9,-,N/A,,Haze,310,2013-01-21 02:15:00
8:35 PM,-12.6,-17.9,78,30.19,7.0,WNW,5.8,-,N/A,,Overcast,300,2013-01-21 02:35:00
8:55 PM,-13.4,-18.6,77,30.19,5.0,WNW,5.8,-,N/A,Snow,Light Snow,300,2013-01-21 02:55:00
9:15 PM,-13.0,-18.0,78,30.19,2.5,WNW,10.4,-,N/A,Snow,Light Snow,300,2013-01-21 03:15:00
9:55 PM,-13.4,-19.5,74,30.20,7.0,WNW,12.7,-,N/A,,Overcast,300,2013-01-21 03:55:00
10:15 PM,-13.9,-20.0,74,30.20,4.0,WNW,13.8,20.7,N/A,,Haze,300,2013-01-21 04:15:00
10:35 PM,-14.3,-20.4,74,30.22,3.0,WNW,18.4,27.6,N/A,,Haze,300,2013-01-21 04:35:00
10:55 PM,-15.2,-21.6,73,30.22,4.0,NW,17.3,-,N/A,,Haze,310,2013-01-21 04:55:00
11:15 PM,-15.7,-22.0,73,30.21,5.0,WNW,11.5,20.7,N/A,,Haze,300,2013-01-21 05:15:00
11:35 PM,-16.2,-22.7,72,30.21,5.0,WNW,12.7,-,N/A,,Haze,300,2013-01-21 05:35:00